SFERA 2 (42913 NORAD) Tracking and Keplerian Element Data

This shows tracking and keplerian element data for the satellite.

Feedback or suggestion? Click here.




ElementValue
Catalog42913
NameSFERA 2
Epoch Orbit7367
Epoch Day333.55334867
Epoch Year2018
RAAN215.5714
Inclination51.6143
Eccentricity0.000533
Argument of Perigee231.8317
Mean Anonmoly129.81
Mean Motion16.46181679
Decay Rate0.15950104
L11 42913U 98067NC 18333.55334867 .15950104 12515-4 36450-3 0 9992
L22 42913 51.6143 215.5714 0005330 231.8317 129.8100 16.46181679 73675

Live tracking and technical data element details for SFERA 2 (NORAD 42913). SFERA 2 can be tracked NOW for your location showing map with azimuth and elevation plus other details from your city location.

Track the satellite on the map from your city or location and see movement details for azimuth, elevation, latitude, longitude, range, height, and movement on the map or in text.







IsCatalogInMostPopularTable: catalog: 42913, numindb: 179
Update: records affected: 1



GetName: 42913 SFERA 2

Hit Count: updated at: Sat, 15 Dec 2018 14:00:12 GMT